SEEKD EDXW-EDHK

Flight info

Callsign SEEKD
Flight time N/A
Altitude 7000
Route OLDIP1A OLDIP DCT EDHK/N0175F060 DCT RENSU
Aircraft BE36/L-BDFGLORY/S

Departure

Time 2026-04-21 13:16
Airport Westerland Sylt Airport (EDXW)

Arrival

Time N/A
Airport Kiel-Holtenau Airport (EDHK)
Time Latitude Longitude Altitude Speed Heading
2026-04-21 13:08 54.92099 8.33870 43 ft 0 kts 355°
2026-04-21 13:13 54.92103 8.33850 43 ft 5 kts 209°
2026-04-21 13:13 54.92061 8.33817 41 ft 9 kts 203°
2026-04-21 13:13 54.92003 8.33741 38 ft 12 kts 231°
2026-04-21 13:14 54.91962 8.33609 33 ft 13 kts 257°
2026-04-21 13:14 54.91956 8.33499 30 ft 11 kts 264°
2026-04-21 13:14 54.91947 8.33406 30 ft 7 kts 249°
2026-04-21 13:14 54.91916 8.33346 29 ft 10 kts 169°
2026-04-21 13:15 54.91792 8.33469 30 ft 36 kts 148°
2026-04-21 13:15 54.91511 8.33818 43 ft 59 kts 141°
2026-04-21 13:15 54.91126 8.34336 131 ft 74 kts 132°
2026-04-21 13:15 54.90989 8.35116 282 ft 82 kts 101°
2026-04-21 13:16 54.90812 8.36270 304 ft 115 kts 106°
2026-04-21 13:16 54.90530 8.37737 377 ft 139 kts 109°
2026-04-21 13:16 54.90199 8.39413 513 ft 153 kts 109°
2026-04-21 13:16 54.89848 8.41220 679 ft 162 kts 106°
2026-04-21 13:17 54.89968 8.43118 839 ft 167 kts 61°
2026-04-21 13:17 54.90582 8.44849 1026 ft 170 kts 58°
2026-04-21 13:17 54.91205 8.46613 1217 ft 172 kts 58°
2026-04-21 13:17 54.91833 8.48394 1399 ft 174 kts 58°
2026-04-21 13:18 54.92247 8.49564 1520 ft 174 kts 58°